Wind_Speed
12 12 12 12 13 15 17 18 20 21 22 23 26 27 28 32 32 30 31 35 43 43 49 51 48 49 51 46 41 40 47 46 39 36 34 36 40 42 45 44 41 43 43 40 36
14 14 15 15 15 15 16 17 19 20 21 22 25 26 28 29 32 36 35 36 37 40 46 48 51 51 55 53 52 47 50 48 40 44 42 39 46 47 46 48 47 47 47 42 39
16 15 16 16 17 18 19 20 21 22 23 24 24 26 26 27 31 33 34 36 37 38 43 46 50 53 56 58 59 56 56 46 43 47 48 48 47 50 50 52 50 49 50 46 45
17 18 18 18 18 18 20 21 23 24 25 26 27 27 27 28 31 31 34 36 39 40 42 44 45 48 51 52 62 64 60 55 49 53 50 49 49 52 55 52 52 55 51 47 46
16 16 17 17 17 18 19 20 22 24 26 28 29 30 30 31 31 34 35 37 39 40 42 42 44 46 49 51 53 62 63 60 55 57 54 48 51 52 56 54 55 55 56 51 51
15 15 16 17 18 19 20 20 20 21 22 24 25 26 28 30 33 33 34 37 40 41 42 44 46 49 51 50 53 49 56 63 64 62 61 58 52 55 56 57 55 57 57 54 55
15 15 16 18 19 21 22 23 24 25 25 27 28 30 31 33 34 36 38 39 39 40 43 47 48 50 52 53 52 53 59 61 60 60 63 62 66 66 56 59 58 58 58 57 58
16 17 18 19 20 20 20 22 23 24 25 26 28 29 31 33 35 36 39 41 44 45 45 47 49 50 52 55 56 57 59 62 58 60 59 69 70 61 60 61 61 62 58 60 59
15 15 16 16 17 18 20 21 21 22 23 25 27 30 33 35 37 40 43 45 46 48 49 50 51 52 55 57 60 62 63 62 59 59 63 67 64 59 62 67 66 64 64 64 58
16 15 16 16 18 18 19 20 21 23 24 26 28 30 31 35 38 40 43 46 48 51 54 54 56 57 58 62 62 59 64 65 64 60 66 67 64 57 62 69 72 70 64 66 67
17 15 15 15 17 20 21 22 24 26 28 28 30 32 34 37 41 43 45 47 49 52 54 58 59 61 60 62 63 68 70 69 68 67 67 69 66 59 59 66 65 73 69 67 70
19 18 17 17 17 18 21 24 25 26 28 29 31 33 36 39 39 44 45 46 48 49 51 52 55 61 65 69 67 70 73 72 72 72 69 71 68 61 61 62 64 62 72 74 67
20 19 18 18 19 20 22 24 25 27 27 28 33 35 37 40 41 43 43 44 46 48 50 52 54 57 61 66 70 73 74 74 76 76 73 72 72 67 62 60 60 62 58 63 60
20 20 21 22 22 22 24 25 26 28 28 32 30 34 38 40 43 42 44 45 45 46 46 47 43 46 50 58 61 69 71 74 78 80 78 74 73 70 64 60 57 53 55 54 53
22 22 24 27 26 25 25 25 26 28 32 29 35 37 41 42 42 45 47 47 44 38 39 31 35 33 36 33 34 45 54 66 73 79 80 77 77 68 66 62 53 49 44 45 43
23 25 27 28 29 28 28 28 30 31 31 34 36 39 42 43 46 48 46 44 38 30 27 25 23 26 26 27 31 30 32 37 59 51 66 79 68 69 62 58 52 46 40 39 38
25 25 28 29 29 30 30 30 31 31 33 35 35 38 40 42 44 42 35 28 25 17 15 15 21 25 26 30 25 25 23 29 35 51 64 76 59 71 60 54 49 47 42 39 38
26 25 27 29 31 32 32 33 31 31 31 32 35 36 39 42 37 30 28 22 20 16 19 18 20 19 15 12 17 25 20 28 28 34 43 55 54 69 61 43 48 48 41 39 38
24 25 27 29 31 32 33 33 33 32 32 32 31 34 39 36 32 21 24 17 16 17 19 21 17 20 14 17 15 21 26 25 32 27 32 37 40 65 58 52 40 31 41 38 39
26 27 29 30 30 32 32 31 33 30 30 30 33 33 33 25 22 19 20 19 16 16 14 17 21 18 15 14 9 9 26 24 25 27 15 26 32 60 58 53 43 32 31 39 43
28 29 30 29 29 30 31 31 31 31 29 29 30 31 26 22 21 21 21 21 18 15 14 16 19 15 17 14 8 10 18 16 23 28 18 19 25 39 49 52 46 35 27 20 32
30 32 31 29 28 29 31 29 28 29 28 28 27 28 22 20 22 22 22 23 24 18 16 18 16 16 14 19 19 15 19 24 27 23 25 20 15 42 56 50 45 50 41 26 24
31 31 31 29 26 29 31 29 27 27 26 26 27 26 22 21 23 20 21 20 22 22 19 18 17 15 10 10 18 16 10 23 20 29 33 24 11 29 47 49 48 44 46 41 31
29 30 28 27 27 29 30 29 26 25 25 23 25 25 20 20 20 22 20 19 18 15 14 19 17 17 16 17 15 15 13 12 17 26 30 34 34 18 33 43 45 43 46 46 38
28 27 29 30 27 29 30 29 25 25 23 21 23 23 20 19 17 22 21 15 16 16 15 19 13 16 17 15 16 15 18 18 17 18 23 28 35 32 44 45 46 41 45 51 44
31 28 25 28 28 29 31 29 24 23 23 19 20 20 20 15 20 22 19 21 22 16 13 7 8 11 13 15 15 14 16 21 24 20 23 18 41 42 47 45 47 43 45 44 43
32 31 29 29 31 29 32 28 24 20 23 17 18 17 20 14 16 17 19 19 20 11 12 12 5 8 10 16 18 11 11 18 23 27 28 24 38 40 45 46 49 53 48 43 43
Wind_Direction
277 274 269 265 257 256 255 252 255 258 253 250 252 253 252 252 249 245 245 246 243 238 242 242 247 240 235 239 237 234 232 227 218 224 225 226 229 226 228 238 239 240 242 248 254
277 273 271 269 263 258 258 255 254 257 258 256 256 256 256 258 253 245 248 248 246 247 245 244 246 248 245 241 239 235 233 228 228 233 234 228 229 227 229 235 238 240 245 247 251
283 277 273 268 264 263 260 258 259 260 261 261 259 257 257 255 254 256 256 255 250 249 245 246 248 250 247 244 244 237 237 234 231 235 233 234 230 236 236 235 238 239 243 246 252
283 282 278 275 272 269 266 263 263 262 262 263 263 263 260 258 258 255 254 254 253 251 252 252 249 245 248 250 246 245 240 240 236 240 236 237 243 230 233 234 238 239 245 250 252
295 290 286 283 280 276 272 269 265 262 261 260 260 260 259 257 256 255 253 253 255 255 253 253 254 254 251 251 254 246 241 245 244 246 241 238 236 240 232 234 238 238 243 246 249
294 290 286 283 280 277 276 275 272 269 268 268 267 265 264 265 261 258 256 254 252 251 252 252 251 252 253 253 253 251 247 245 246 245 248 242 237 238 232 231 237 241 245 245 249
287 283 279 277 275 273 272 272 271 269 268 268 268 267 267 265 264 264 262 257 253 251 250 250 250 250 252 251 250 247 247 247 246 250 245 246 236 234 232 235 233 239 243 246 250
297 291 288 286 283 278 273 269 265 265 267 267 269 272 272 271 268 265 264 263 262 259 254 251 251 251 252 253 251 250 246 247 247 249 247 244 242 234 235 235 234 234 238 242 243
326 317 308 303 296 291 291 288 285 282 281 280 280 279 276 274 272 270 268 266 264 262 262 259 254 252 252 252 251 250 250 250 247 248 247 244 246 238 235 238 238 233 233 238 239
334 321 313 311 308 303 299 295 293 291 290 289 286 283 280 277 273 269 268 266 264 263 261 260 260 260 256 252 252 253 253 249 247 243 248 248 244 241 237 237 238 238 233 236 240
355 349 329 320 314 311 307 303 300 298 296 295 293 289 288 286 282 278 274 270 267 265 261 259 254 252 252 254 253 248 248 247 245 243 245 247 246 239 241 239 242 242 241 239 239
357 357 352 347 335 324 317 308 303 299 296 295 290 288 288 287 286 286 284 282 277 273 268 262 259 256 255 253 251 248 248 246 246 245 243 245 244 241 239 238 240 241 243 242 243
354 355 350 342 337 332 326 319 314 310 307 301 299 297 299 297 297 296 296 292 291 290 287 282 277 273 264 259 253 249 244 241 243 243 242 242 242 240 238 240 240 242 247 243 243
352 351 351 345 342 340 336 329 322 316 314 309 305 308 308 307 304 306 302 301 299 295 292 289 282 275 268 264 257 248 243 238 236 237 240 241 243 239 239 237 239 240 243 242 248
345 346 347 346 341 341 338 332 326 323 321 320 319 318 314 313 311 313 310 306 303 302 295 291 275 268 264 262 259 254 243 237 234 233 233 236 240 234 237 237 238 241 242 245 243
338 339 343 343 339 339 339 334 334 331 329 325 323 322 319 319 317 316 313 309 306 302 292 284 260 265 270 267 263 263 248 245 233 233 233 231 235 233 235 237 237 238 237 236 231
330 334 337 341 340 338 341 337 336 336 331 327 325 321 318 318 316 317 316 312 306 303 278 270 265 267 267 270 259 259 240 239 238 230 232 227 231 230 231 233 232 235 231 228 228
324 328 332 337 339 340 340 338 336 334 330 327 324 321 320 320 320 322 321 315 309 297 277 270 260 277 275 249 262 253 239 229 230 239 242 230 229 227 225 231 233 232 229 226 224
324 330 331 333 336 339 338 336 334 332 329 328 326 324 325 324 324 328 329 320 299 307 294 276 280 291 260 289 259 241 227 228 226 233 225 233 236 220 220 220 222 226 230 224 226
322 326 329 332 333 335 335 334 329 331 330 328 328 329 330 332 328 324 326 328 310 314 305 292 284 291 285 302 258 264 229 231 225 235 237 217 223 212 218 218 208 211 211 219 221
321 323 325 328 330 332 333 332 331 330 331 331 330 333 337 340 332 320 310 306 304 295 301 295 289 284 289 289 246 288 220 247 227 210 200 215 221 211 210 216 208 195 197 200 215
319 323 322 324 327 330 331 331 331 329 332 332 331 339 343 343 340 332 317 299 294 290 280 279 286 280 277 265 263 264 228 202 213 212 200 175 171 214 205 211 212 207 208 196 182
314 320 319 319 324 328 332 331 333 330 331 332 334 342 346 346 346 347 339 322 307 292 279 279 277 275 283 276 260 274 223 228 227 215 202 214 180 205 205 208 213 207 204 201 186
320 318 316 319 326 327 331 331 334 332 329 333 330 339 339 343 343 342 340 335 323 305 285 277 269 266 257 245 279 263 257 252 222 223 216 212 194 203 188 200 208 207 202 197 200
329 325 320 319 330 329 330 331 334 332 329 330 327 334 338 335 349 337 329 334 340 332 290 280 274 264 246 253 262 265 259 258 251 240 238 220 220 213 184 190 195 195 192 197 204
337 333 328 320 326 327 328 329 331 333 328 325 331 329 337 327 340 345 348 327 332 349 353 306 264 252 239 251 255 266 261 258 258 257 254 234 210 181 180 185 188 183 181 185 194
345 341 335 325 328 329 327 328 326 334 326 329 330 326 332 314 341 351 7 6 7 339 3 345 295 243 229 246 264 275 242 247 254 253 255 235 187 184 177 184 182 181 180 187 189
Height
5769 5768 5767 5767 5767 5768 5769 5770 5773 5775 5776 5777 5779 5781 5783 5784 5787 5789 5792 5795 5797 5800 5804 5806 5809 5812 5813 5816 5820 5823 5825 5830 5839 5842 5847 5847 5848 5849 5848 5853 5857 5857 5859 5860 5864
5765 5765 5764 5764 5763 5764 5765 5766 5767 5769 5770 5771 5773 5775 5777 5778 5779 5781 5784 5787 5789 5792 5795 5797 5801 5802 5804 5808 5810 5814 5816 5825 5834 5833 5836 5836 5840 5839 5844 5845 5850 5852 5852 5856 5859
5761 5761 5761 5761 5761 5760 5760 5761 5762 5763 5764 5765 5766 5769 5770 5771 5771 5774 5776 5779 5781 5783 5785 5788 5790 5792 5794 5798 5803 5807 5807 5821 5823 5823 5824 5827 5832 5836 5838 5838 5843 5846 5844 5848 5852
5758 5757 5756 5756 5757 5757 5757 5757 5757 5757 5758 5759 5760 5761 5763 5764 5766 5767 5767 5768 5771 5773 5775 5778 5779 5781 5785 5787 5793 5792 5801 5806 5814 5809 5813 5818 5823 5826 5827 5833 5837 5835 5839 5841 5844
5754 5753 5752 5752 5752 5751 5751 5752 5752 5752 5752 5753 5753 5754 5756 5757 5759 5759 5760 5761 5763 5764 5766 5767 5768 5770 5773 5777 5776 5781 5789 5792 5796 5797 5804 5806 5813 5816 5819 5825 5826 5827 5828 5833 5836
5751 5750 5749 5748 5747 5747 5746 5746 5746 5746 5746 5746 5746 5747 5748 5748 5749 5750 5752 5753 5754 5755 5756 5757 5758 5759 5761 5764 5766 5772 5772 5777 5782 5784 5790 5795 5803 5802 5812 5816 5817 5817 5820 5825 5829
5747 5746 5745 5744 5743 5742 5742 5741 5741 5740 5740 5740 5740 5740 5740 5741 5740 5739 5739 5741 5742 5744 5745 5746 5747 5749 5750 5752 5755 5757 5757 5762 5768 5774 5779 5781 5783 5789 5807 5806 5810 5810 5814 5818 5821
5744 5742 5741 5740 5738 5737 5736 5736 5735 5735 5734 5734 5734 5733 5732 5732 5731 5730 5730 5730 5729 5730 5732 5733 5734 5737 5738 5740 5741 5743 5744 5747 5764 5761 5765 5762 5766 5787 5796 5797 5798 5805 5807 5809 5812
5739 5737 5735 5734 5733 5731 5730 5729 5728 5728 5727 5727 5726 5725 5724 5723 5721 5720 5719 5718 5718 5718 5718 5720 5722 5725 5726 5725 5725 5729 5733 5739 5747 5750 5745 5744 5756 5775 5785 5783 5783 5791 5797 5799 5803
5736 5733 5731 5729 5727 5726 5724 5722 5721 5720 5719 5718 5717 5717 5715 5712 5711 5710 5708 5707 5706 5705 5706 5708 5708 5708 5709 5707 5713 5722 5717 5722 5726 5735 5728 5732 5744 5759 5766 5769 5770 5777 5785 5790 5793
5733 5730 5727 5725 5723 5720 5719 5716 5716 5714 5711 5710 5707 5705 5702 5699 5697 5696 5694 5693 5691 5691 5691 5692 5696 5693 5689 5689 5698 5699 5697 5704 5711 5715 5716 5719 5729 5745 5750 5753 5758 5763 5770 5776 5780
5730 5727 5724 5722 5719 5717 5714 5711 5708 5707 5704 5702 5699 5696 5693 5690 5687 5681 5679 5676 5673 5672 5672 5675 5676 5670 5670 5672 5677 5676 5680 5689 5692 5696 5704 5706 5716 5729 5731 5740 5745 5751 5754 5761 5769
5729 5726 5722 5719 5716 5713 5710 5706 5702 5699 5696 5692 5688 5684 5680 5676 5672 5667 5663 5659 5656 5652 5650 5652 5650 5644 5647 5648 5654 5656 5659 5670 5672 5677 5684 5690 5696 5709 5718 5726 5733 5738 5745 5750 5759
5727 5723 5719 5716 5713 5708 5704 5699 5695 5691 5688 5684 5679 5675 5670 5664 5658 5654 5648 5645 5640 5635 5632 5633 5627 5623 5622 5624 5629 5632 5640 5645 5651 5656 5667 5674 5681 5693 5705 5712 5720 5729 5733 5740 5746
5723 5719 5715 5710 5707 5703 5699 5693 5689 5684 5679 5674 5669 5663 5657 5653 5648 5642 5635 5629 5624 5621 5617 5620 5611 5609 5609 5612 5612 5612 5619 5622 5630 5637 5646 5657 5659 5684 5690 5700 5712 5719 5726 5730 5737
5718 5714 5709 5706 5702 5698 5692 5687 5681 5677 5670 5666 5662 5655 5649 5643 5637 5630 5623 5617 5613 5610 5607 5605 5602 5601 5602 5602 5602 5603 5605 5608 5613 5621 5622 5644 5645 5667 5680 5692 5701 5708 5714 5718 5723
5713 5709 5704 5700 5696 5691 5686 5681 5677 5670 5665 5660 5655 5649 5643 5638 5630 5622 5617 5613 5609 5605 5602 5600 5598 5597 5595 5592 5594 5594 5597 5601 5606 5605 5605 5635 5630 5652 5670 5679 5690 5695 5702 5708 5714
5707 5703 5699 5694 5689 5685 5680 5675 5670 5664 5660 5655 5648 5643 5637 5629 5623 5616 5611 5607 5602 5600 5597 5594 5595 5592 5588 5586 5589 5588 5592 5596 5600 5606 5610 5614 5614 5646 5661 5669 5678 5686 5692 5699 5705
5701 5697 5693 5688 5683 5679 5674 5668 5663 5658 5653 5647 5643 5636 5628 5621 5616 5613 5607 5603 5599 5596 5593 5589 5589 5587 5584 5583 5584 5584 5583 5590 5592 5593 5596 5609 5612 5637 5652 5660 5668 5675 5682 5690 5696
5694 5691 5687 5682 5677 5673 5669 5663 5656 5652 5646 5640 5634 5630 5623 5616 5612 5608 5603 5599 5595 5592 5589 5586 5583 5582 5581 5578 5579 5578 5583 5586 5587 5588 5593 5604 5610 5629 5638 5648 5660 5667 5672 5679 5684
5688 5684 5680 5677 5672 5667 5662 5656 5650 5645 5640 5635 5629 5623 5617 5612 5607 5603 5599 5595 5591 5588 5585 5582 5580 5581 5578 5578 5576 5576 5576 5578 5581 5587 5589 5603 5611 5613 5623 5636 5650 5659 5665 5672 5677
5681 5677 5673 5670 5667 5661 5656 5651 5646 5639 5634 5628 5624 5618 5613 5608 5603 5599 5594 5588 5585 5583 5581 5577 5575 5575 5575 5573 5574 5573 5572 5573 5577 5584 5588 5588 5599 5601 5616 5628 5640 5651 5658 5668 5672
5675 5671 5666 5663 5660 5656 5650 5645 5639 5633 5628 5623 5617 5613 5609 5604 5598 5593 5589 5583 5579 5576 5575 5573 5572 5571 5572 5573 5570 5570 5569 5572 5575 5576 5582 5585 5596 5596 5607 5620 5629 5641 5653 5662 5668
5670 5665 5661 5656 5654 5650 5644 5638 5633 5628 5622 5618 5613 5609 5605 5600 5595 5590 5585 5580 5574 5571 5569 5567 5567 5567 5567 5566 5564 5565 5566 5567 5569 5570 5576 5580 5584 5595 5601 5610 5620 5633 5643 5655 5663
5664 5660 5654 5649 5648 5643 5638 5632 5627 5622 5617 5613 5609 5604 5601 5597 5593 5586 5581 5577 5571 5567 5564 5561 5562 5561 5562 5563 5562 5562 5562 5562 5562 5564 5566 5574 5575 5582 5590 5600 5611 5626 5637 5648 5657
5659 5654 5650 5644 5641 5637 5632 5626 5622 5618 5613 5609 5605 5600 5597 5594 5589 5583 5578 5572 5569 5565 5561 5558 5557 5557 5558 5559 5558 5558 5558 5558 5557 5558 5557 5561 5565 5573 5582 5595 5607 5622 5634 5642 5651
5655 5650 5645 5640 5634 5631 5626 5620 5616 5613 5608 5605 5601 5597 5594 5591 5587 5582 5577 5572 5567 5564 5561 5558 5556 5555 5555 5554 5554 5554 5553 5552 5553 5552 5552 5554 5567 5571 5580 5590 5603 5616 5629 5639 5647